Track STARLINK-1205 now! 10-day predictions STARLINK-1205 is classified as:
1 45184U 20012G 21025.04174484 .00000538 00000-0 55024-4 0 9995 2 45184 53.0568 139.7729 0001578 70.9531 289.1629 15.06392111 52648